{"data":{"norad_id":53926,"intl_designator":"2022-119AS","name":"STARLINK-5014","alt_names":[],"object_type":"PAYLOAD","status":"ACTIVE","operator":null,"country":"US","launch_date":"2022-09-24","launch_site_code":"AFETR","launch_vehicle":null,"mission":null,"orbit_class":"UNKNOWN","rcs_meters":null,"size_class":null,"mass_kg":null,"dimensions":null,"purposes":["comms"],"wikipedia_slug":null,"has_3d_model":false,"image_url":null,"decayed_at":null,"tle_current":{"epoch":"2026-05-25T04:00:03.998880Z","epoch_age_seconds":68043,"freshness":"FRESH","line1":"1 53926U 22119AS  26145.16671295  .00620747  00000+0  11311-1 0  9998","line2":"2 53926  53.2170 318.2794 0000944  99.4039  56.7983 15.46625562  5858","mean_motion":15.46625562,"eccentricity":9.44e-5,"inclination_deg":53.217,"raan_deg":318.2794,"arg_perigee_deg":99.4039,"mean_anomaly_deg":56.7983,"bstar":0.011311,"rev_number":585,"period_min":93.105922686153,"perigee_km":425.96349617218,"apogee_km":427.24823162488,"semimajor_km":6804.7428638985,"source":"CELESTRAK","updated_at":"2026-05-25T13:38:17.614417Z"}}}